sat.trackr.live / text

‹ back to catalog

STARLINK-37103

NORAD 68267 · 2026-055F

PAYLOAD ACTIVE UNKNOWN

§ Identity

Operator
Country
US
Launch date
2026-03-19
Launch site
AFETR
Launch vehicle
Mass (kg)
RCS (m²)

Purposes: comms

External: N2YO · Heavens-Above · Gunter

§ Orbital elements

Epoch: 2026-05-25T04:34:53.524128Z

Period
93.79 min
Inclination
53.1595°
Eccentricity
0.0001421
Mean motion
15.35418348 rev/d
Perigee alt
458.7 km
Apogee alt
460.6 km
Semi-major
6,837.8 km
B*
1.1203e-3
RAAN
322.5034°
Arg perigee
66.7609°
Mean anomaly
293.3544°
Rev number
1,166

§ Raw data

STARLINK-371031 68267U 26055F   26145.19089727  .00038923  00000+0  11203-2 0  99912 68267  53.1595 322.5034 0001421  66.7609 293.3544 15.35418348 11666

JSON: /api/v1/satellites/68267 · /tle

For live sub-satellite position, see the globe view (requires WebGL).

§ Visibility from observer

Set your observer location to see the next 7 days of passes ≥ 10°. The values pass through the URL so the page stays shareable.

No JS? Fill the form by hand. The geolocation button needs JavaScript.